AirNav   Air Wisconsin Up To $57,000 Bonus
 
 1284 users online  

01WA Willapa Harbor Heliport
South Bend, Washington, USA

GOING TO SOUTH BEND?


FAA INFORMATION EFFECTIVE 19 MAY 2022

Location

FAA Identifier: 01WA
Lat/Long: 46-39-47.2000N 123-48-43.5800W
46-39.786667N 123-48.726333W
46.6631111,-123.8121056
(estimated)
Elevation: 174 ft. / 53 m (estimated)
Variation: 15E (2025)
Time zone: UTC -7 (UTC -8 during Standard Time)
Zip code: 98586

Heliport Operations

Heliport use: Private use, MEDICAL USE.
Activation date: 03/1976
Control tower: no
ARTCC: SEATTLE CENTER
FSS: SEATTLE FLIGHT SERVICE STATION
NOTAMs facility: FDC (NOTAM-D service not available)
Attendance: UNATNDD
Wind indicator: yes
Segmented circle: no

Heliport Communications

WX ASOS at HQM (19 nm N): 135.775 (360-538-7021)

Nearby radio navigation aids

VOR radial/distance  VOR name  Freq  Var
HQMr122/22.0HOQUIAM VORTAC117.7019E
ASTr350/30.2ASTORIA VOR/DME114.0015E

Heliport Services

Runway Information

Helipad H1

Dimensions: 40 x 40 ft. / 12 x 12 m
Surface: concrete, in fair condition
Latitude: 46-39.789283N
Longitude: 123-48.726367W
Elevation: 154.0 ft.
Traffic pattern: leftleft
Markings: none, in fair condition

Heliport Ownership and Management from official FAA records

Ownership: Privately-owned
Owner: WILLAPA HARBOR HOSPITAL
800 ALDER ST
SOUTH BEND, WA 98586
Phone 360-875-5526
Manager: GARY SPOOR
800 ALDER ST
SOUTH BEND, WA 98586
Phone 360-875-4509

Additional Remarks

A52-H1 50 FT TREES 300 FT WEST.
FOR CD CTC SEATTLE ARTCC AT 253-351-3694.

Instrument Procedures

There are no published instrument procedures at 01WA.

Some nearby airports with instrument procedures:

KHQM - Bowerman Airport (19 nm N)
KAST - Astoria Regional Airport (30 nm S)
KCLS - Chehalis-Centralia Airport (34 nm E)
KOLM - Olympia Regional Airport (42 nm NE)
KTDO - Ed Carlson Memorial Field - South Lewis County Airport (43 nm E)
 
Loc | Ops | Rwys | IFR | FBO | Links
Com | Nav | Svcs | Stats | Notes
Area around 01WA (Willapa Harbor Heliport)
 
Road maps at: MapQuest Bing Google
 
Aerial photo
No photo
 
Sectional chart

 
Airport distance calculator
Flying to Willapa Harbor Heliport? Find the distance to fly.

From to 01WA

Sunrise and sunset
Times for 26-May-2022
 Local
(UTC-7)
 Zulu
(UTC)
Morning civil twilight04:5311:53
Sunrise05:3112:31
Sunset20:5403:54
Evening civil twilight21:3104:31

Current date and time
Zulu (UTC)  26-May-2022 13:33:58
Local (UTC-7)  26-May-2022 06:33:58
 
METAR
KHQM 
19nm N 
261253Z AUTO 07005KT 9SM OVC090 09/08 A2991 RMK AO2 SLP130 T00940078
KAST 
31nm S 
261255Z AUTO 12005KT 10SM -RA OVC095 11/09 A2989 RMK AO2 SLP120 P0000 T01060094
KCLS 
34nm E 
261315Z AUTO 00000KT 10SM -DZ FEW065 BKN090 10/10 A2993 RMK AO2
TAF
KHQM 
19nm N 
261120Z 2612/2712 VRB03KT P6SM SCT010 OVC100 FM261300 VRB03KT P6SM SCT010 OVC040 FM261800 15006KT 6SM -RA BR OVC025 FM262300 18007KT 4SM -RA BR OVC015 FM270200 17010KT 2SM -RA BR OVC007 FM270800 20012KT P6SM OVC015
NOTAMs
Click for the latest NOTAMs
NOTAMs are issued by the DoD/FAA and will open in a separate window not controlled by AirNav.

 

 
 

Would you like to see your business listed on this page?

 If your business provides an interesting product or service to pilots, flight crews, aircraft, or users of the Willapa Harbor Heliport, you should consider listing it here.  To start the listing process, click on the button below
 
Add a business
 

Other Pages about Willapa Harbor Heliport

Update a link
 
Copyright © AirNav, LLC. All rights reserved. Privacy Policy  Contact